Weather History for Rockport, TX

Change the Weather History Date:

Sunday, February 19, 2012

  Actual Average Record
Temperature  
Mean Temperature 56 °F -  
Max Temperature 61 °F 67 °F 90 °F (1986)
Min Temperature 50 °F 50 °F 32 °F (1978)
Degree Days  
Heating Degree Days 10    
Growing Degree Days 6 (Base 50)    
Moisture  
Dew Point 47 °F    
Average Humidity 73    
Maximum Humidity 86    
Minimum Humidity 55    
Precipitation  
Precipitation 0.00 in - - ()
Sea Level Pressure  
Sea Level Pressure 30.09 in    
Wind  
Wind Speed 12 mph (East)    
Max Wind Speed 17 mph    
Max Gust Speed 26 mph    
Visibility 10 miles    
Events      
Averages and records for this station are not official NWS values.
T = Trace of Precipitation, MM = Missing Value Source: NWS Daily Summary

Daily Weather History Graph

Daily Weather History Graph

Search for Another Location

Airport:

Trip Planner

Search our weather history database for the weather conditions in past years. The results will help you decide how hot, cold, wet, or windy it might be!

Date:

Astronomy

Feb. 19, 2012 Rise Set
Actual Time 7:02 AM CST 6:21 PM CST
Civil Twilight 6:38 AM CST 6:45 PM CST
Nautical Twilight 6:11 AM CST 7:12 PM CST
Astronomical Twilight 5:44 AM CST 7:40 PM CST
Moon 5:16 AM CST (2/19) 4:30 PM CST (2/19)
Length of Visible Light 12h 06m
Length of Day
11h 18m
Waning Crescent, 5% of the Moon is Illuminated
Feb 19
Waning Crescent
Feb 21
New
Feb 29
First Quarter
Mar 8
Full
Mar 14
Last Quarter

Hourly Weather History & Observations

Time (CST) Temp. Dew Point Humidity Pressure Visibility Wind Dir Wind Speed Gust Speed Precip Events Conditions
12:53 AM 54.0 °F 46.9 °F 77% 30.06 in 10.0 mi NNW 16.1 mph - N/A   Clear
1:53 AM 53.1 °F 46.9 °F 80% 30.06 in 10.0 mi NNW 17.3 mph - N/A   Clear
2:53 AM 51.1 °F 46.9 °F 86% 30.06 in 10.0 mi NNW 15.0 mph 25.3 mph N/A   Clear
3:53 AM 50.0 °F 45.0 °F 83% 30.07 in 10.0 mi North 11.5 mph - N/A   Clear
4:53 AM 50.0 °F 44.1 °F 80% 30.06 in 10.0 mi North 15.0 mph 26.5 mph N/A   Clear
5:53 AM 50.0 °F 45.0 °F 83% 30.08 in 10.0 mi North 13.8 mph - N/A   Clear
7:53 AM 52.0 °F 45.0 °F 77% 30.15 in 10.0 mi North 8.1 mph - N/A   Clear
8:53 AM 55.0 °F 46.0 °F 72% 30.17 in 10.0 mi North 5.8 mph - N/A   Clear
9:53 AM 57.9 °F 45.0 °F 62% 30.17 in 10.0 mi North 12.7 mph - N/A   Partly Cloudy
11:53 AM 59.0 °F 45.0 °F 60% 30.17 in 10.0 mi Variable 6.9 mph - N/A   Mostly Cloudy
12:20 PM 60.8 °F 44.6 °F 55% 30.16 in 10.0 mi Variable 4.6 mph - N/A   Mostly Cloudy
12:53 PM 61.0 °F 46.0 °F 58% 30.14 in 10.0 mi ESE 9.2 mph - N/A   Scattered Clouds
1:53 PM 61.0 °F 46.0 °F 58% 30.11 in 10.0 mi East 8.1 mph - N/A   Clear
2:53 PM 61.0 °F 48.0 °F 62% 30.07 in 10.0 mi ESE 8.1 mph - N/A   Clear
3:53 PM 61.0 °F 48.0 °F 62% 30.07 in 10.0 mi SE 11.5 mph - N/A   Clear
4:53 PM 57.9 °F 48.0 °F 70% 30.07 in 10.0 mi ESE 10.4 mph - N/A   Clear
5:53 PM 55.9 °F 48.0 °F 75% 30.06 in 10.0 mi East 10.4 mph - N/A   Clear
6:53 PM 55.0 °F 48.0 °F 77% 30.06 in 10.0 mi East 11.5 mph - N/A   Clear
7:53 PM 55.0 °F 48.0 °F 77% 30.07 in 10.0 mi ESE 12.7 mph - N/A   Clear
8:53 PM 55.9 °F 50.0 °F 80% 30.08 in 10.0 mi ESE 11.5 mph - N/A   Partly Cloudy
9:13 PM 55.4 °F 50.0 °F 82% 30.07 in 10.0 mi ESE 8.1 mph - N/A   Mostly Cloudy
9:53 PM 57.9 °F 51.1 °F 78% 30.08 in 10.0 mi SE 9.2 mph - N/A   Overcast
10:53 PM 59.0 °F 51.1 °F 75% 30.08 in 10.0 mi SE 9.2 mph - N/A   Overcast
11:33 PM 60.8 °F 51.8 °F 72% 30.06 in 10.0 mi SE 9.2 mph - N/A   Overcast
11:53 PM 60.1 °F 52.0 °F 75% 30.06 in 10.0 mi ESE 8.1 mph - N/A   Overcast